Reading, PA

7:57 PM EST on January 21, 2017 (GMT -0500)
Reading

Weather History for KRDG - May, 2014

Change the Weather History Date:

Saturday, May 17, 2014

  Actual Average Record
Temperature  
Mean Temperature 57 °F 61 °F  
Max Temperature 66 °F 73 °F 92 °F (1974)
Min Temperature 47 °F 50 °F 31 °F (1983)
Degree Days  
Heating Degree Days 8 5  
Month to date heating degree days 68 118  
Since 1 July heating degree days 5708 5316  
Cooling Degree Days 0 2  
Month to date cooling degree days 26 19  
Year to date cooling degree days 35 28  
Growing Degree Days 6 (Base 50)    
Moisture  
Dew Point 41 °F    
Average Humidity 59    
Maximum Humidity 80    
Minimum Humidity 37    
Precipitation  
Precipitation 0.00 in 0.12 in 1.65 in (1989)
Month to date precipitation 1.99 2.09  
Year to date precipitation 17.31 14.87  
Sea Level Pressure  
Sea Level Pressure 30.05 in    
Wind  
Wind Speed 6 mph (WNW)    
Max Wind Speed 14 mph    
Max Gust Speed 19 mph    
Visibility 10 miles    
Events      
T = Trace of Precipitation, MM = Missing Value Source: NWS Daily Summary

Daily Weather History Graph

Daily Weather History Graph

Search for Another Location

Airport or City:

Trip Planner

Search our weather history database for the weather conditions in past years. The results will help you decide how hot, cold, wet, or windy it might be!

Date:

Astronomy

May. 17, 2014 Rise Set
Actual Time 5:45 AM EDT 8:15 PM EDT
Civil Twilight 5:14 AM EDT 8:46 PM EDT
Nautical Twilight 4:36 AM EDT 9:25 PM EDT
Astronomical Twilight 3:53 AM EDT 10:08 PM EDT
Moon 11:13 PM EDT (5/17) 8:26 AM EDT (5/17)
Length of Visible Light 15h 31m
Length of Day
14h 29m
Waning Gibbous, 89% of the Moon is Illuminated
May 17
Waning Gibbous
May 21
Last Quarter
May 28
New
Jun 5
First Quarter
Jun 13
Full

Hourly Weather History & Observations

Time (EDT) Temp. Dew Point Humidity Pressure Visibility Wind Dir Wind Speed Gust Speed Precip Events Conditions
12:54 AM 54.0 °F 46.9 °F 77% 29.94 in 10.0 mi West 6.9 mph - N/A   Scattered Clouds
1:54 AM 53.1 °F 45.0 °F 74% 29.92 in 10.0 mi West 3.5 mph - N/A   Overcast
2:54 AM 51.1 °F 43.0 °F 74% 29.94 in 10.0 mi West 5.8 mph - N/A   Clear
3:54 AM 50.0 °F 42.1 °F 74% 29.95 in 10.0 mi West 5.8 mph - N/A   Clear
4:54 AM 48.9 °F 42.1 °F 77% 29.97 in 10.0 mi Calm Calm - N/A   Clear
5:54 AM 48.0 °F 41.0 °F 77% 30.00 in 10.0 mi West 3.5 mph - N/A   Clear
6:54 AM 48.9 °F 42.1 °F 77% 30.01 in 10.0 mi NW 3.5 mph - N/A   Clear
7:54 AM 53.1 °F 43.0 °F 69% 30.03 in 10.0 mi WNW 9.2 mph - N/A   Clear
8:54 AM 55.9 °F 45.0 °F 67% 30.05 in 10.0 mi NW 9.2 mph - N/A   Clear
9:54 AM 59.0 °F 42.1 °F 53% 30.06 in 10.0 mi NW 8.1 mph - N/A   Clear
10:54 AM 59.0 °F 41.0 °F 51% 30.07 in 10.0 mi NW 6.9 mph 16.1 mph N/A   Scattered Clouds
11:54 AM 61.0 °F 41.0 °F 48% 30.07 in 10.0 mi NW 9.2 mph - N/A   Mostly Cloudy
12:54 PM 61.0 °F 42.1 °F 50% 30.08 in 10.0 mi NW 10.4 mph - N/A   Overcast
1:54 PM 64.0 °F 42.1 °F 45% 30.08 in 10.0 mi WNW 9.2 mph - N/A   Mostly Cloudy
2:54 PM 64.0 °F 41.0 °F 43% 30.07 in 10.0 mi WNW 6.9 mph - N/A   Mostly Cloudy
3:54 PM 64.9 °F 39.9 °F 40% 30.07 in 10.0 mi West 12.7 mph 17.3 mph N/A   Scattered Clouds
4:54 PM 64.0 °F 41.0 °F 43% 30.08 in 10.0 mi NW 8.1 mph - N/A   Mostly Cloudy
5:54 PM 64.9 °F 39.0 °F 39% 30.07 in 10.0 mi WSW 6.9 mph - N/A   Scattered Clouds
6:54 PM 64.0 °F 37.0 °F 37% 30.08 in 10.0 mi West 6.9 mph - N/A   Clear
7:54 PM 62.1 °F 37.0 °F 39% 30.09 in 10.0 mi SW 4.6 mph - N/A   Mostly Cloudy
8:54 PM 59.0 °F 37.0 °F 44% 30.11 in 10.0 mi West 4.6 mph - N/A   Clear
9:54 PM 57.9 °F 37.9 °F 47% 30.13 in 10.0 mi Calm Calm - N/A   Scattered Clouds
10:54 PM 54.0 °F 39.9 °F 59% 30.15 in 10.0 mi WNW 5.8 mph - N/A   Partly Cloudy
11:54 PM 53.1 °F 39.0 °F 59% 30.17 in 10.0 mi WNW 3.5 mph - N/A   Clear